Toledo Metcalf, OH

3:45 PM EDT on July 28, 2017 (GMT -0400)
Metcalf

Weather History for KTDZ - March, 2013

Change the Weather History Date:

Thursday, March 28, 2013

  Actual Average (KTOL) Record (KTOL)
Temperature  
Mean Temperature 40 °F -  
Max Temperature 52 °F 52 °F 81 °F (1910)
Min Temperature 28 °F 31 °F 11 °F (1934)
Degree Days  
Heating Degree Days 26    
Moisture  
Dew Point 24 °F    
Average Humidity 54    
Maximum Humidity 72    
Minimum Humidity 35    
Precipitation  
Precipitation 0.00 in - - ()
Sea Level Pressure  
Sea Level Pressure 30.26 in    
Wind  
Wind Speed 10 mph (WNW)    
Max Wind Speed 13 mph    
Max Gust Speed -    
Visibility 10 miles    
Events      
Averages and records for this station are not official NWS values.
T = Trace of Precipitation, MM = Missing Value Source: NWS Daily Summary

Daily Weather History Graph

Daily Weather History Graph

Search for Another Location

Airport or City:

Trip Planner

Search our weather history database for the weather conditions in past years. The results will help you decide how hot, cold, wet, or windy it might be!

Date:

Astronomy

Mar. 28, 2013 Rise Set
Actual Time 7:23 AM EDT 7:55 PM EDT
Civil Twilight 6:55 AM EDT 8:23 PM EDT
Nautical Twilight 6:22 AM EDT 8:55 PM EDT
Astronomical Twilight 5:48 AM EDT 9:29 PM EDT
Moon 9:47 PM EDT 7:49 AM EDT
Length of Visible Light 13h 27m
Length of Day
12h 31m
Full, 98% of the Moon is Illuminated
Mar 28
Full
Apr 3
Last Quarter
Apr 10
New
Apr 18
First Quarter
Apr 25
Full

Hourly Weather History & Observations

Time (EDT) Temp. Windchill Dew Point Humidity Pressure Visibility Wind Dir Wind Speed Gust Speed Precip Events Conditions
12:53 AM 34.0 °F 25.5 °F 21.9 °F 61% 30.24 in 10.0 mi WNW 11.5 mph - N/A   Clear
1:53 AM 33.1 °F 25.5 °F 21.9 °F 64% 30.25 in 10.0 mi WNW 9.2 mph - N/A   Clear
2:53 AM 34.0 °F 25.0 °F 21.9 °F 61% 30.25 in 10.0 mi WNW 12.7 mph - N/A   Overcast
3:53 AM 32.0 °F 24.2 °F 21.9 °F 66% 30.25 in 10.0 mi WNW 9.2 mph - N/A   Overcast
4:53 AM 30.0 °F 22.4 °F 21.0 °F 69% 30.25 in 10.0 mi West 8.1 mph - N/A   Mostly Cloudy
5:53 AM 28.9 °F 21.9 °F 21.0 °F 72% 30.25 in 10.0 mi West 6.9 mph - N/A   Clear
6:53 AM 28.9 °F 20.4 °F 21.0 °F 72% 30.26 in 10.0 mi West 9.2 mph - N/A   Clear
7:53 AM 30.0 °F 22.4 °F 21.9 °F 72% 30.27 in 10.0 mi West 8.1 mph - N/A   Clear
8:53 AM 35.1 °F 26.4 °F 23.0 °F 61% 30.28 in 10.0 mi WNW 12.7 mph - N/A   Clear
9:53 AM 39.0 °F 31.4 °F 25.0 °F 57% 30.29 in 10.0 mi NW 12.7 mph - N/A   Clear
10:53 AM 41.0 °F 33.9 °F 24.1 °F 51% 30.29 in 10.0 mi WNW 12.7 mph - N/A   Overcast
11:53 AM 44.1 °F 38.1 °F 25.0 °F 47% 30.30 in 10.0 mi West 11.5 mph - N/A   Overcast
12:53 PM 46.9 °F - 24.1 °F 41% 30.28 in 10.0 mi WNW 11.5 mph - N/A   Mostly Cloudy
1:53 PM 50.0 °F - 24.1 °F 36% 30.27 in 10.0 mi NW 9.2 mph - N/A   Overcast
2:53 PM 51.1 °F - 24.1 °F 35% 30.26 in 10.0 mi NNW 9.2 mph - N/A   Overcast
3:53 PM 51.1 °F - 25.0 °F 36% 30.25 in 10.0 mi WNW 10.4 mph - N/A   Overcast
4:53 PM 51.1 °F - 25.0 °F 36% 30.25 in 10.0 mi West 11.5 mph - N/A   Overcast
5:53 PM 51.1 °F - 25.0 °F 36% 30.24 in 10.0 mi WNW 11.5 mph - N/A   Overcast
6:53 PM 50.0 °F - 25.0 °F 38% 30.25 in 10.0 mi West 10.4 mph - N/A   Overcast
7:53 PM 46.9 °F - 27.0 °F 46% 30.25 in 10.0 mi West 5.8 mph - N/A   Overcast
8:53 PM 46.0 °F 42.5 °F 27.0 °F 47% 30.26 in 10.0 mi West 6.9 mph - N/A   Overcast
9:53 PM 45.0 °F 43.5 °F 27.0 °F 49% 30.27 in 10.0 mi WNW 3.5 mph - N/A   Overcast
10:53 PM 42.1 °F 36.6 °F 30.9 °F 65% 30.28 in 10.0 mi SW 9.2 mph - N/A   Overcast
11:53 PM 37.9 °F 30.5 °F 28.9 °F 70% 30.29 in 10.0 mi WSW 11.5 mph - N/A   Scattered Clouds